Home > Weather > Taiyuan > Past weeks

Flag for China Weather for the Past 2 Weeks in Taiyuan, Shanxi, China

Now
19 °F

Haze.


Feels Like: 19 °F
Forecast: 24 / 49 °F
Wind: 1 mph from East

Location: Taiyuan Airport

Current Time: Feb 7, 2016 at 10:08:16 AM

Latest Report: Feb 7, 2016 at 9:00 AM


Visibility: 3 mi

Pressure: 30.21 "Hg (27.30 "Hg at 790m altitude)

Humidity: 38%

Dew point: -2 °F

Location of TaiyuanLocation

Historic Weather in Taiyuan — Graph

°F

Taiyuan Temperature Yesterday

Maximum temperature yesterday: 37 °F (at 3:00 PM)
Minimum temperature yesterday: 9 °F (at 4:00 AM)
Average temperature yesterday: 23 °F

High & Low Weather Summary for the Past Weeks

 TemperatureHumidityPressure
High41 °F (Feb 4, 1:00 PM)86% (Jan 30, 3:00 PM)30.80 "Hg (Jan 30, 3:00 PM)
Low-2 °F (Jan 24, 3:00 AM)9% (Feb 6, 5:30 PM)30.09 "Hg (Jan 27, 2:30 PM)
Average20 °F33%30.37 "Hg
* Reported Jan 23 8:00 AM — Feb 7 8:30 AM, Taiyuan, Weather by CustomWeather, © 2016

Note: Actual official high and low records may vary slightly from our data, if they occured in-between our weather recording intervals... More about our weather records

Advertising

Taiyuan Weather History for the Previous 24 Hours

 ConditionsComfort  
Time TempWeatherWind HumidityBarometerVisibility
8:30 AM
Sun, Feb 7
14 °FHaze.1 mph48%30.21 "Hg3 mi
8:00 AM12 °FHaze.1 mph44%30.21 "Hg3 mi
7:30 AM10 °FHaze.1 mph44%30.18 "Hg3 mi
7:00 AM10 °FHaze.3 mph44%30.18 "Hg3 mi
6:30 AM10 °FClear.1 mph44%30.18 "Hg4 mi
6:00 AM12 °FClear.1 mph40%30.18 "Hg4 mi
5:00 AM14 °FClear.3 mph37%30.18 "Hg4 mi
4:30 AM16 °FHaze.6 mph34%30.18 "Hg3 mi
4:00 AM14 °FClear.3 mph41%30.18 "Hg10 mi
3:30 AM12 °FClear.1 mph37%30.21 "Hg10 mi
3:00 AM12 °FClear.1 mph37%30.21 "Hg10 mi
2:30 AM14 °FClear.1 mph34%30.21 "Hg10 mi
2:00 AM14 °FClear.1 mph37%30.24 "Hg10 mi
1:30 AM14 °FClear.3 mph34%30.24 "Hg10 mi
1:00 AM16 °FClear.3 mph31%30.24 "Hg10 mi
12:30 AM18 °FClear.3 mph27%30.24 "Hg10 mi
12:00 AM18 °FClear.3 mph29%30.27 "Hg10 mi
11:30 PM
Sat, Feb 6
19 °FClear.3 mph27%30.27 "Hg10 mi
11:00 PM18 °FClear.3 mph27%30.30 "Hg10 mi
10:30 PM21 °FClear.1 mph23%30.30 "Hg10 mi
10:00 PM25 °FClear.3 mph20%30.30 "Hg10 mi
9:30 PM25 °FClear.1 mph20%30.30 "Hg10 mi
9:00 PM28 °FClear.6 mph15%30.33 "Hg10 mi
8:30 PM27 °FClear.6 mph17%30.33 "Hg10 mi
8:00 PM27 °FClear.8 mph17%30.33 "Hg10 mi
7:30 PM28 °FClear.10 mph15%30.33 "Hg10 mi
7:00 PM30 °FClear.13 mph14%30.33 "Hg10 mi
6:30 PM32 °FClear.13 mph12%30.33 "Hg10 mi
6:00 PM32 °FClear.13 mph10%30.30 "Hg10 mi
5:30 PM34 °FSunny.13 mph9%30.30 "Hg10 mi
5:00 PM36 °FPassing clouds.6 mph14%30.27 "HgN/A
4:30 PM37 °FPassing clouds.6 mph13%30.30 "HgN/A
4:00 PM37 °FPassing clouds.6 mph13%30.30 "HgN/A
3:30 PM37 °FPassing clouds.8 mph13%30.30 "HgN/A
3:00 PM37 °FPassing clouds.8 mph13%30.30 "HgN/A
2:30 PM36 °FPassing clouds.8 mph14%30.33 "HgN/A
2:00 PM36 °FPassing clouds.6 mph14%30.33 "HgN/A
1:30 PM34 °FPassing clouds.8 mph15%30.36 "HgN/A
1:00 PM34 °FPassing clouds.6 mph16%30.36 "HgN/A
12:00 PM30 °FPassing clouds.6 mph22%30.42 "HgN/A
11:30 AM28 °FPassing clouds.6 mph26%30.45 "HgN/A
10:30 AM25 °FPassing clouds.3 mph33%30.45 "HgN/A
10:00 AM23 °FPassing clouds.3 mph33%30.45 "HgN/A
Weather by CustomWeather, © 2016

See weather overviewHow to use our weather pages